Time,TemperatureF,DewpointF,PressureIn,WindDirection,WindDirectionDegrees,WindSpeedMPH,WindSpeedGustMPH,Humidity,HourlyPrecipIn,Conditions,Clouds,dailyrainin,SoftwareType,DateUTC
2013-03-14 00:12:00,28.0,19.0,30.04,WNW,301,3.0,7.0,69,0.00,,,0.00,,2013-03-14 04:12:00,
2013-03-14 00:22:00,28.0,19.0,30.04,WNW,301,3.0,7.0,69,0.00,,,0.00,,2013-03-14 04:22:00,
2013-03-14 00:32:00,28.0,19.0,30.07,WNW,282,3.0,6.0,68,0.00,,,0.00,,2013-03-14 04:32:00,
2013-03-14 00:42:00,28.0,19.0,30.07,WNW,282,3.0,6.0,68,0.00,,,0.00,,2013-03-14 04:42:00,
2013-03-14 00:53:00,28.0,19.0,30.07,WNW,282,3.0,6.0,68,0.00,,,0.00,,2013-03-14 04:53:00,
2013-03-14 01:02:00,27.0,18.0,30.06,WNW,287,2.0,10.0,68,0.00,,,0.00,,2013-03-14 05:02:00,
2013-03-14 01:12:00,27.0,18.0,30.06,WNW,287,2.0,10.0,68,0.00,,,0.00,,2013-03-14 05:12:00,
2013-03-14 01:22:00,27.0,18.0,30.06,WNW,287,2.0,10.0,68,0.00,,,0.00,,2013-03-14 05:22:00,
2013-03-14 01:33:00,27.0,18.0,30.07,NW,309,5.0,7.0,68,0.00,,,0.00,,2013-03-14 05:33:00,
2013-03-14 01:42:00,27.0,18.0,30.07,NW,309,5.0,7.0,68,0.00,,,0.00,,2013-03-14 05:42:00,
2013-03-14 01:53:00,27.0,18.0,30.07,NW,309,5.0,7.0,68,0.00,,,0.00,,2013-03-14 05:53:00,
2013-03-14 02:02:00,27.0,17.0,30.07,NW,304,1.0,6.0,66,0.00,,,0.00,,2013-03-14 06:02:00,
2013-03-14 02:12:00,27.0,17.0,30.07,NW,304,1.0,6.0,66,0.00,,,0.00,,2013-03-14 06:12:00,
2013-03-14 02:22:00,27.0,17.0,30.07,NW,304,1.0,6.0,66,0.00,,,0.00,,2013-03-14 06:22:00,
2013-03-14 02:33:00,26.0,17.0,30.07,WNW,296,3.0,7.0,68,0.00,,,0.00,,2013-03-14 06:33:00,
2013-03-14 02:42:00,26.0,17.0,30.07,WNW,296,3.0,7.0,68,0.00,,,0.00,,2013-03-14 06:42:00,
2013-03-14 02:52:00,26.0,17.0,30.07,WNW,296,3.0,7.0,68,0.00,,,0.00,,2013-03-14 06:52:00,
2013-03-14 03:02:00,26.0,17.0,30.07,WNW,296,3.0,7.0,68,0.00,,,0.00,,2013-03-14 07:02:00,
2013-03-14 03:32:00,26.0,18.0,30.09,West,281,1.0,5.0,71,0.00,,,0.00,,2013-03-14 07:32:00,
2013-03-14 03:43:00,26.0,18.0,30.09,West,281,1.0,5.0,71,0.00,,,0.00,,2013-03-14 07:43:00,
2013-03-14 03:52:00,26.0,18.0,30.09,West,281,1.0,5.0,71,0.00,,,0.00,,2013-03-14 07:52:00,
2013-03-14 04:02:00,25.0,17.0,30.08,WNW,295,4.0,8.0,71,0.00,,,0.00,,2013-03-14 08:02:00,
2013-03-14 04:12:00,25.0,17.0,30.08,WNW,295,4.0,8.0,71,0.00,,,0.00,,2013-03-14 08:12:00,
2013-03-14 04:22:00,25.0,17.0,30.08,WNW,295,4.0,8.0,71,0.00,,,0.00,,2013-03-14 08:22:00,
2013-03-14 04:32:00,25.0,16.0,30.08,WNW,299,3.0,6.0,68,0.00,,,0.00,,2013-03-14 08:32:00,
2013-03-14 04:42:00,25.0,16.0,30.08,WNW,299,3.0,6.0,68,0.00,,,0.00,,2013-03-14 08:42:00,
2013-03-14 04:52:00,25.0,16.0,30.08,WNW,299,3.0,6.0,68,0.00,,,0.00,,2013-03-14 08:52:00,
2013-03-14 05:02:00,24.0,16.0,30.08,WNW,296,3.0,7.0,70,0.00,,,0.00,,2013-03-14 09:02:00,
2013-03-14 05:12:00,24.0,16.0,30.08,WNW,296,3.0,7.0,70,0.00,,,0.00,,2013-03-14 09:12:00,
2013-03-14 05:22:00,24.0,16.0,30.08,WNW,296,3.0,7.0,70,0.00,,,0.00,,2013-03-14 09:22:00,
2013-03-14 05:32:00,24.0,15.0,30.07,North,360,2.0,8.0,69,0.00,,,0.00,,2013-03-14 09:32:00,
2013-03-14 05:42:00,24.0,15.0,30.07,North,360,2.0,8.0,69,0.00,,,0.00,,2013-03-14 09:42:00,
2013-03-14 05:52:00,24.0,15.0,30.07,North,360,2.0,8.0,69,0.00,,,0.00,,2013-03-14 09:52:00,
2013-03-14 06:02:00,24.0,16.0,30.07,WNW,291,2.0,5.0,72,0.00,,,0.00,,2013-03-14 10:02:00,
2013-03-14 06:12:00,24.0,16.0,30.07,WNW,291,2.0,5.0,72,0.00,,,0.00,,2013-03-14 10:12:00,
2013-03-14 06:22:00,24.0,16.0,30.07,WNW,291,2.0,5.0,72,0.00,,,0.00,,2013-03-14 10:22:00,
2013-03-14 06:32:00,23.0,15.0,30.11,NW,311,1.0,7.0,70,0.00,,,0.00,,2013-03-14 10:32:00,
2013-03-14 06:42:00,23.0,15.0,30.11,NW,311,1.0,7.0,70,0.00,,,0.00,,2013-03-14 10:42:00,
2013-03-14 06:52:00,23.0,15.0,30.11,NW,311,1.0,7.0,70,0.00,,,0.00,,2013-03-14 10:52:00,
2013-03-14 07:02:00,23.0,15.0,30.11,NW,311,1.0,7.0,70,0.00,,,0.00,,2013-03-14 11:02:00,
2013-03-14 07:33:00,23.0,15.0,30.13,WNW,288,0.0,2.0,72,0.00,,,0.00,,2013-03-14 11:33:00,
2013-03-14 07:42:00,23.0,15.0,30.13,WNW,288,0.0,2.0,72,0.00,,,0.00,,2013-03-14 11:42:00,
2013-03-14 07:53:00,23.0,15.0,30.13,WNW,288,0.0,2.0,72,0.00,,,0.00,,2013-03-14 11:53:00,
2013-03-14 08:02:00,22.0,14.0,30.14,NNW,344,0.0,6.0,72,0.00,,,0.00,,2013-03-14 12:02:00,
2013-03-14 08:12:00,22.0,14.0,30.14,NNW,344,0.0,6.0,72,0.00,,,0.00,,2013-03-14 12:12:00,
2013-03-14 08:22:00,22.0,14.0,30.14,NNW,344,0.0,6.0,72,0.00,,,0.00,,2013-03-14 12:22:00,
2013-03-14 08:33:00,23.0,14.0,30.15,NE,45,0.0,4.0,69,0.00,,,0.00,,2013-03-14 12:33:00,
2013-03-14 08:42:00,23.0,14.0,30.15,NE,45,0.0,4.0,69,0.00,,,0.00,,2013-03-14 12:42:00,
2013-03-14 08:52:00,23.0,14.0,30.15,NE,45,0.0,4.0,69,0.00,,,0.00,,2013-03-14 12:52:00,
2013-03-14 09:02:00,24.0,14.0,30.15,NNW,340,1.0,5.0,65,0.00,,,0.00,,2013-03-14 13:02:00,
2013-03-14 09:12:00,24.0,14.0,30.15,NNW,340,1.0,5.0,65,0.00,,,0.00,,2013-03-14 13:12:00,
2013-03-14 09:22:00,24.0,14.0,30.15,NNW,340,1.0,5.0,65,0.00,,,0.00,,2013-03-14 13:22:00,
2013-03-14 09:32:00,27.0,16.0,30.15,NW,318,0.0,3.0,63,0.00,,,0.00,,2013-03-14 13:32:00,
2013-03-14 09:42:00,27.0,16.0,30.15,NW,318,0.0,3.0,63,0.00,,,0.00,,2013-03-14 13:42:00,
2013-03-14 09:53:00,27.0,16.0,30.15,NW,318,0.0,3.0,63,0.00,,,0.00,,2013-03-14 13:53:00,
2013-03-14 10:02:00,28.0,15.0,30.15,WNW,295,0.0,2.0,57,0.00,,,0.00,,2013-03-14 14:02:00,
2013-03-14 10:12:00,28.0,15.0,30.15,WNW,295,0.0,2.0,57,0.00,,,0.00,,2013-03-14 14:12:00,
2013-03-14 10:22:00,28.0,15.0,30.15,WNW,295,0.0,2.0,57,0.00,,,0.00,,2013-03-14 14:22:00,
2013-03-14 10:32:00,33.0,15.0,30.17,NNW,340,1.0,6.0,48,0.00,,,0.00,,2013-03-14 14:32:00,
2013-03-14 10:42:00,33.0,15.0,30.17,NNW,340,1.0,6.0,48,0.00,,,0.00,,2013-03-14 14:42:00,
2013-03-14 10:53:00,33.0,15.0,30.17,NNW,340,1.0,6.0,48,0.00,,,0.00,,2013-03-14 14:53:00,
2013-03-14 11:02:00,36.0,17.0,30.16,NNW,339,0.0,3.0,45,0.00,,,0.00,,2013-03-14 15:02:00,
2013-03-14 11:12:00,36.0,17.0,30.16,NNW,339,0.0,3.0,45,0.00,,,0.00,,2013-03-14 15:12:00,
2013-03-14 11:22:00,36.0,17.0,30.16,NNW,339,0.0,3.0,45,0.00,,,0.00,,2013-03-14 15:22:00,
2013-03-14 11:33:00,38.0,16.0,30.16,North,357,0.0,5.0,40,0.00,,,0.00,,2013-03-14 15:33:00,
2013-03-14 11:43:00,38.0,16.0,30.16,North,357,0.0,5.0,40,0.00,,,0.00,,2013-03-14 15:43:00,
2013-03-14 11:52:00,38.0,16.0,30.16,North,357,0.0,5.0,40,0.00,,,0.00,,2013-03-14 15:52:00,
2013-03-14 12:03:00,40.0,17.0,30.19,North,353,1.0,3.0,39,0.00,,,0.00,,2013-03-14 16:03:00,
2013-03-14 12:13:00,40.0,17.0,30.19,North,353,1.0,3.0,39,0.00,,,0.00,,2013-03-14 16:13:00,
2013-03-14 12:23:00,40.0,17.0,30.19,North,353,1.0,3.0,39,0.00,,,0.00,,2013-03-14 16:23:00,
2013-03-14 12:32:00,43.0,20.0,30.18,NNW,337,1.0,2.0,39,0.00,,,0.00,,2013-03-14 16:32:00,
2013-03-14 12:42:00,43.0,20.0,30.18,NNW,337,1.0,2.0,39,0.00,,,0.00,,2013-03-14 16:42:00,
2013-03-14 12:52:00,43.0,20.0,30.18,NNW,337,1.0,2.0,39,0.00,,,0.00,,2013-03-14 16:52:00,
2013-03-14 13:02:00,43.0,20.0,30.17,WNW,301,0.0,0.0,39,0.00,,,0.00,,2013-03-14 17:02:00,
2013-03-14 13:12:00,43.0,20.0,30.17,WNW,301,0.0,0.0,39,0.00,,,0.00,,2013-03-14 17:12:00,
2013-03-14 13:23:00,43.0,20.0,30.17,WNW,301,0.0,0.0,39,0.00,,,0.00,,2013-03-14 17:23:00,
2013-03-14 13:33:00,48.0,15.0,30.17,NW,313,0.0,2.0,26,0.00,,,0.00,,2013-03-14 17:33:00,
2013-03-14 13:42:00,48.0,15.0,30.17,NW,313,0.0,2.0,26,0.00,,,0.00,,2013-03-14 17:42:00,
2013-03-14 13:53:00,48.0,15.0,30.17,NW,313,0.0,2.0,26,0.00,,,0.00,,2013-03-14 17:53:00,
2013-03-14 14:03:00,48.0,15.0,30.17,NW,313,0.0,2.0,26,0.00,,,0.00,,2013-03-14 18:03:00,
2013-03-14 14:33:00,46.0,17.0,30.14,East,97,1.0,6.0,31,0.00,,,0.00,,2013-03-14 18:33:00,
2013-03-14 14:43:00,46.0,17.0,30.14,East,97,1.0,6.0,31,0.00,,,0.00,,2013-03-14 18:43:00,
2013-03-14 14:53:00,46.0,17.0,30.14,East,97,1.0,6.0,31,0.00,,,0.00,,2013-03-14 18:53:00,
2013-03-14 15:03:00,48.0,20.0,30.13,West,268,1.0,2.0,33,0.00,,,0.00,,2013-03-14 19:03:00,
2013-03-14 15:12:00,48.0,20.0,30.13,West,268,1.0,2.0,33,0.00,,,0.00,,2013-03-14 19:12:00,
2013-03-14 15:23:00,48.0,20.0,30.13,West,268,1.0,2.0,33,0.00,,,0.00,,2013-03-14 19:23:00,
2013-03-14 15:32:00,49.0,17.0,30.11,ENE,62,1.0,5.0,28,0.00,,,0.00,,2013-03-14 19:32:00,
2013-03-14 15:42:00,49.0,17.0,30.11,ENE,62,1.0,5.0,28,0.00,,,0.00,,2013-03-14 19:42:00,
2013-03-14 15:52:00,49.0,17.0,30.11,ENE,62,1.0,5.0,28,0.00,,,0.00,,2013-03-14 19:52:00,
2013-03-14 16:02:00,46.0,19.0,30.11,East,93,1.0,5.0,34,0.00,,,0.00,,2013-03-14 20:02:00,
2013-03-14 16:12:00,46.0,19.0,30.11,East,93,1.0,5.0,34,0.00,,,0.00,,2013-03-14 20:12:00,
2013-03-14 16:22:00,46.0,19.0,30.11,East,93,1.0,5.0,34,0.00,,,0.00,,2013-03-14 20:22:00,
2013-03-14 16:32:00,45.0,17.0,30.11,East,100,1.0,3.0,32,0.00,,,0.00,,2013-03-14 20:32:00,
2013-03-14 16:42:00,45.0,17.0,30.11,East,100,1.0,3.0,32,0.00,,,0.00,,2013-03-14 20:42:00,
2013-03-14 16:52:00,45.0,17.0,30.11,East,100,1.0,3.0,32,0.00,,,0.00,,2013-03-14 20:52:00,
2013-03-14 17:03:00,46.0,18.0,30.11,NW,308,1.0,3.0,32,0.00,,,0.00,,2013-03-14 21:03:00,
2013-03-14 17:12:00,46.0,18.0,30.11,NW,308,1.0,3.0,32,0.00,,,0.00,,2013-03-14 21:12:00,
2013-03-14 17:23:00,46.0,18.0,30.11,NW,308,1.0,3.0,32,0.00,,,0.00,,2013-03-14 21:23:00,
2013-03-14 17:33:00,49.0,19.0,30.09,NNW,328,0.0,3.0,30,0.00,,,0.00,,2013-03-14 21:33:00,
2013-03-14 17:43:00,49.0,19.0,30.09,NNW,328,0.0,3.0,30,0.00,,,0.00,,2013-03-14 21:43:00,
2013-03-14 17:53:00,49.0,19.0,30.09,NNW,328,0.0,3.0,30,0.00,,,0.00,,2013-03-14 21:53:00,
2013-03-14 18:04:00,47.0,19.0,30.09,NNW,328,1.0,5.0,32,0.00,,,0.00,,2013-03-14 22:04:00,
2013-03-14 18:13:00,47.0,19.0,30.09,NNW,328,1.0,5.0,32,0.00,,,0.00,,2013-03-14 22:13:00,
2013-03-14 18:23:00,47.0,19.0,30.09,NNW,328,1.0,5.0,32,0.00,,,0.00,,2013-03-14 22:23:00,
2013-03-14 18:33:00,45.0,20.0,30.09,NNW,336,0.0,6.0,36,0.00,,,0.00,,2013-03-14 22:33:00,
2013-03-14 18:42:00,45.0,20.0,30.09,NNW,336,0.0,6.0,36,0.00,,,0.00,,2013-03-14 22:42:00,
2013-03-14 18:53:00,45.0,20.0,30.09,NNW,336,0.0,6.0,36,0.00,,,0.00,,2013-03-14 22:53:00,
2013-03-14 19:03:00,42.0,20.0,30.08,WNW,302,1.0,3.0,41,0.00,,,0.00,,2013-03-14 23:03:00,
2013-03-14 19:12:00,42.0,20.0,30.08,WNW,302,1.0,3.0,41,0.00,,,0.00,,2013-03-14 23:12:00,
2013-03-14 19:23:00,42.0,20.0,30.08,WNW,302,1.0,3.0,41,0.00,,,0.00,,2013-03-14 23:23:00,
2013-03-14 19:33:00,40.0,21.0,30.09,WNW,302,0.0,0.0,47,0.00,,,0.00,,2013-03-14 23:33:00,
2013-03-14 19:42:00,40.0,21.0,30.09,WNW,302,0.0,0.0,47,0.00,,,0.00,,2013-03-14 23:42:00,
2013-03-14 19:54:00,40.0,21.0,30.09,WNW,302,0.0,0.0,47,0.00,,,0.00,,2013-03-14 23:54:00,
2013-03-14 20:02:00,38.0,20.0,30.09,WNW,298,0.0,0.0,47,0.00,,,0.00,,2013-03-15 00:02:00,
2013-03-14 20:12:00,38.0,20.0,30.09,WNW,298,0.0,0.0,47,0.00,,,0.00,,2013-03-15 00:12:00,
2013-03-14 20:23:00,38.0,20.0,30.09,WNW,298,0.0,0.0,47,0.00,,,0.00,,2013-03-15 00:23:00,
2013-03-14 20:32:00,36.0,18.0,30.09,WNW,298,0.0,0.0,48,0.00,,,0.00,,2013-03-15 00:32:00,
2013-03-14 20:42:00,36.0,18.0,30.09,WNW,298,0.0,0.0,48,0.00,,,0.00,,2013-03-15 00:42:00,
2013-03-14 20:52:00,36.0,18.0,30.09,WNW,298,0.0,0.0,48,0.00,,,0.00,,2013-03-15 00:52:00,
2013-03-14 21:02:00,35.0,17.0,30.09,WNW,298,0.0,0.0,48,0.00,,,0.00,,2013-03-15 01:02:00,
2013-03-14 21:12:00,35.0,17.0,30.09,WNW,298,0.0,0.0,48,0.00,,,0.00,,2013-03-15 01:12:00,
2013-03-14 21:23:00,35.0,17.0,30.09,WNW,298,0.0,0.0,48,0.00,,,0.00,,2013-03-15 01:23:00,
2013-03-14 21:32:00,34.0,18.0,30.09,WNW,298,0.0,0.0,51,0.00,,,0.00,,2013-03-15 01:32:00,
2013-03-14 21:42:00,34.0,18.0,30.09,WNW,298,0.0,0.0,51,0.00,,,0.00,,2013-03-15 01:42:00,
2013-03-14 21:52:00,34.0,18.0,30.09,WNW,298,0.0,0.0,51,0.00,,,0.00,,2013-03-15 01:52:00,
2013-03-14 22:03:00,34.0,18.0,30.09,WNW,298,0.0,0.0,51,0.00,,,0.00,,2013-03-15 02:03:00,
2013-03-14 22:32:00,33.0,17.0,30.12,WNW,298,0.0,0.0,51,0.00,,,0.00,,2013-03-15 02:32:00,
2013-03-14 22:42:00,33.0,17.0,30.12,WNW,298,0.0,0.0,51,0.00,,,0.00,,2013-03-15 02:42:00,
2013-03-14 22:52:00,33.0,17.0,30.12,WNW,298,0.0,0.0,51,0.00,,,0.00,,2013-03-15 02:52:00,
2013-03-14 23:02:00,32.0,19.0,30.12,WNW,298,0.0,0.0,57,0.00,,,0.00,,2013-03-15 03:02:00,
2013-03-14 23:12:00,32.0,19.0,30.12,WNW,298,0.0,0.0,57,0.00,,,0.00,,2013-03-15 03:12:00,
2013-03-14 23:22:00,32.0,19.0,30.12,WNW,298,0.0,0.0,57,0.00,,,0.00,,2013-03-15 03:22:00,
2013-03-14 23:33:00,31.0,18.0,30.11,WNW,298,0.0,2.0,59,0.00,,,0.00,,2013-03-15 03:33:00,
2013-03-14 23:43:00,31.0,18.0,30.11,WNW,298,0.0,2.0,59,0.00,,,0.00,,2013-03-15 03:43:00,
2013-03-14 23:53:00,31.0,18.0,30.11,WNW,298,0.0,2.0,59,0.00,,,0.00,,2013-03-15 03:53:00,